User: anonymous   Login
Location: Hamburg
(53.5500°N, 10.0000°E)
Time: 10:26:04
(UTC+01:00)
Language:

Iridium 10 - Orbit

View from above orbital plane
View from above orbital plane
View from above satellite
View from above satellite

Ground track
Ground track

The orbit data is extracted from the following two-line orbital elements,

1 24839U 97030D   14352.51578884  .00000407  00000-0  13840-3 0  1291
2 24839 086.3947 011.1714 0002201 108.9228 044.5609 14.34219789916287
Epoch (UTC): 18 December 2014 12:22:44
Eccentricity: 0.0002201
inclination: 86.3947°
perigee height: 776 km
apogee height: 779 km
right ascension of ascending node: 11.1714°
argument of perigee: 108.9228°
revolutions per day: 14.34219789
mean anomaly at epoch: 44.5609°
orbit number at epoch: 91628

The dashed part of the orbit path shows where the satellite is in the earth's shadow,  

DLR